This demonstration page uses our WeatherBlox Daily Observations layout. Learn more.

Left ArrowRight Arrow

36.19886, -115.1175

Hourly Observations for January 11, 2022

Temp ( °F °C ) Dew Point ( °F °C ) Humidity (%) Winds ( mph kmh ) Pressure ( in mb ) Visibility ( mi km ) Precip ( " mm )
12:53 am 00:53 Clear 46 7.8 16 -8.9 30 30 W 6 9 30.49 1032 10 16 0.00 0.00
1:53 am 01:53 Clear 46 7.8 16 -8.9 30 30 NNW 8 13 30.48 1032 10 16 0.00 0.00
2:53 am 02:53 Clear 43 6.1 15 -9.4 32 32 NW 8 13 30.48 1032 10 16 0.00 0.00
3:53 am 03:53 Clear 44 6.7 16 -8.9 32 32 NNW 12 19 30.46 1032 10 16 0.00 0.00
4:53 am 04:53 Clear 45 7.2 16 -8.9 31 31 NNW 10 17 30.47 1032 10 16 0.00 0.00
5:53 am 05:53 Clear 43 6.1 16 -8.9 34 34 NNW 6 9 30.50 1033 10 16 0.00 0.00
6:53 am 06:53 Sunny 41 5 16 -8.9 36 36 WNW 10 17 30.52 1034 10 16 0.00 0.00
7:53 am 07:53 Sunny 45 7.2 16 -8.9 31 31 NNW 12 19 30.53 1034 10 16 0.00 0.00
8:53 am 08:53 Sunny 48 8.9 16 -8.9 28 28 NNW 10 17 30.53 1034 10 16 0.00 0.00
9:53 am 09:53 Sunny 54 12.2 16 -8.9 22 22 N 10 17 30.54 1034 10 16 0.00 0.00
10:53 am 10:53 Sunny 54 12.2 16 -8.9 22 22 SE 7 11 30.52 1033 10 16 0.00 0.00
11:53 am 11:53 Sunny 57 13.9 15 -9.4 19 19 ESE 5 7 30.46 1032 10 16 0.00 0.00
12:53 pm 12:53 Sunny 60 15.6 15 -9.4 17 17 Calm 30.42 1030 10 16 0.00 0.00
1:53 pm 13:53 Sunny 60 15.6 14 -10 16 16 Calm 30.40 1030 10 16 0.00 0.00
2:53 pm 14:53 Sunny 61 16.1 13 -10.6 15 15 SSE 5 7 30.40 1029 10 16 0.00 0.00
3:53 pm 15:53 Sunny 62 16.7 13 -10.6 14 14 E 3 6 30.39 1029 10 16 0.00 0.00
4:53 pm 16:53 Clear 59 15 14 -10 17 17 SSE 3 6 30.40 1030 10 16 0.00 0.00
5:53 pm 17:53 Clear 56 13.3 15 -9.4 20 20 Calm 30.42 1030 10 16 0.00 0.00
6:53 pm 18:53 Clear 52 11.1 18 -7.8 26 26 W 7 11 30.44 1031 10 16 0.00 0.00
7:53 pm 19:53 Clear 49 9.4 17 -8.3 28 28 NW 7 11 30.45 1031 10 16 0.00 0.00
8:53 pm 20:53 Clear 49 9.4 15 -9.4 26 26 NW 6 9 30.45 1031 10 16 0.00 0.00
9:53 pm 21:53 Clear 47 8.3 17 -8.3 30 30 WNW 7 11 30.46 1032 10 16 0.00 0.00
10:53 pm 22:53 Clear 49 9.4 14 -10 25 25 NNW 8 13 30.47 1032 10 16 0.00 0.00
11:53 pm 23:53 Clear 50 10 14 -10 24 24 NW 5 7 30.46 1032 10 16 0.00 0.00

Powered by AerisWeather